Powrót do katalogu

CHECKMATE 6

AktywnyMilitariaPO
NORAD 56165·PAYLOAD·🇺🇸 United States

Wystrzelony Apr 2, 2023 z Vandenberg Space Force Base

Loading…

Następne Przeloty (najbliższe 24 godziny)

TLE

ŚwieżeSource: Space-Track

Epoka: Sep 14, 2026, 11:39 UTC

1 56165U 23050D   26257.48552000  .00000060  00000-0  40460-4 0  9993
2 56165  81.0084 345.8881 0019701  65.1387 295.1816 13.88751637174486

Śledź CHECKMATE 6 w czasie rzeczywistym z AllMySat

Download on the App Store